Location: StarHub Observatory
(35.2598°N, 77.5855°W)
Time: 02:29:27
(UTC-05:00)

Hubble Space Telescope - Pass Details

Date: 05 December 2021
Orbit: 534 x 538 km, 28.5° (Epoch: 28 January)

Event Time Altitude Azimuth Distance (km) Brightness Sun altitude
Exits shadow 04:43:39 12° 168° (SSE) 1,640 3.4 -28.0°
Drops below altitude 10° 04:44:14 10° 161° (SSE) 1,769 3.7 -27.9°
Sets 04:47:12 0° 139° (SE) 2,657 5.0 -27.3°
